QPF
0.01 0.01 0.02 0.02 0.01 0.00 0.01 0.04 0.11 0.12 0.03 0.01 0.00 0.00 0.00 0.00 0.00 0.00 0.00 0.00 0.00 0.00 0.00 0.00 0.00 0.00 0.00 0.00 0.00 0.00 0.00 0.00 0.00 0.00 0.00 0.00 0.00 0.00 0.00 0.00 0.00 0.00 0.00
0.00 0.00 0.00 0.01 0.02 0.05 0.07 0.04 0.03 0.01 0.00 0.00 0.00 0.00 0.00 0.00 0.00 0.00 0.00 0.00 0.00 0.00 0.00 0.00 0.00 0.00 0.00 0.00 0.00 0.00 0.00 0.00 0.00 0.00 0.00 0.00 0.00 0.00 0.00 0.00 0.00 0.00 0.00
0.00 0.00 0.00 0.01 0.04 0.03 0.01 0.00 0.00 0.00 0.00 0.00 0.00 0.00 0.00 0.00 0.00 0.00 0.00 0.00 0.00 0.00 0.00 0.00 0.00 0.00 0.00 0.00 0.00 0.00 0.00 0.00 0.00 0.00 0.00 0.00 0.00 0.00 0.00 0.00 0.00 0.00 0.00
0.00 0.00 0.00 0.00 0.00 0.00 0.00 0.00 0.00 0.00 0.00 0.00 0.00 0.00 0.00 0.00 0.00 0.00 0.00 0.00 0.00 0.00 0.00 0.00 0.00 0.00 0.00 0.00 0.00 0.00 0.00 0.00 0.00 0.00 0.00 0.00 0.00 0.00 0.00 0.00 0.00 0.00 0.00
0.00 0.00 0.00 0.00 0.00 0.00 0.00 0.00 0.00 0.00 0.00 0.00 0.00 0.00 0.00 0.00 0.00 0.00 0.00 0.00 0.00 0.00 0.00 0.00 0.00 0.00 0.00 0.00 0.00 0.00 0.00 0.00 0.00 0.00 0.00 0.00 0.00 0.00 0.00 0.00 0.00 0.00 0.00
0.00 0.00 0.00 0.00 0.00 0.00 0.00 0.00 0.00 0.00 0.00 0.00 0.00 0.00 0.00 0.00 0.00 0.00 0.00 0.00 0.00 0.00 0.00 0.00 0.00 0.00 0.00 0.00 0.00 0.00 0.00 0.00 0.00 0.00 0.00 0.00 0.00 0.00 0.00 0.00 0.00 0.00 0.00
0.00 0.00 0.00 0.00 0.00 0.00 0.00 0.00 0.00 0.00 0.00 0.00 0.00 0.00 0.00 0.00 0.00 0.00 0.00 0.00 0.00 0.00 0.00 0.00 0.00 0.00 0.00 0.00 0.00 0.00 0.00 0.00 0.00 0.00 0.00 0.00 0.00 0.00 0.00 0.00 0.00 0.00 0.00
0.00 0.00 0.00 0.00 0.00 0.00 0.00 0.00 0.00 0.00 0.00 0.00 0.00 0.00 0.00 0.00 0.00 0.00 0.00 0.00 0.00 0.00 0.00 0.00 0.00 0.00 0.00 0.00 0.00 0.00 0.00 0.00 0.00 0.00 0.00 0.00 0.00 0.00 0.00 0.00 0.00 0.00 0.00
0.00 0.00 0.00 0.00 0.00 0.00 0.00 0.00 0.00 0.00 0.00 0.00 0.00 0.00 0.00 0.00 0.00 0.00 0.00 0.00 0.00 0.00 0.00 0.00 0.00 0.00 0.00 0.00 0.00 0.00 0.00 0.00 0.00 0.00 0.00 0.00 0.00 0.00 0.00 0.00 0.00 0.00 0.00
0.00 0.00 0.00 0.00 0.00 0.00 0.00 0.00 0.00 0.00 0.00 0.00 0.00 0.00 0.00 0.00 0.00 0.00 0.00 0.00 0.00 0.00 0.00 0.00 0.00 0.00 0.00 0.00 0.00 0.00 0.00 0.00 0.00 0.00 0.00 0.00 0.00 0.00 0.00 0.00 0.00 0.00 0.00
0.00 0.00 0.00 0.00 0.00 0.00 0.00 0.00 0.00 0.00 0.00 0.00 0.00 0.00 0.00 0.00 0.00 0.00 0.00 0.00 0.00 0.00 0.00 0.00 0.00 0.00 0.00 0.00 0.00 0.00 0.00 0.00 0.00 0.00 0.00 0.00 0.00 0.00 0.00 0.00 0.00 0.00 0.00
0.00 0.00 0.00 0.00 0.00 0.00 0.00 0.00 0.00 0.00 0.00 0.00 0.00 0.00 0.00 0.00 0.00 0.00 0.00 0.00 0.00 0.00 0.00 0.00 0.00 0.00 0.00 0.00 0.00 0.00 0.00 0.00 0.00 0.00 0.00 0.00 0.00 0.00 0.00 0.00 0.00 0.00 0.00
0.00 0.00 0.00 0.00 0.00 0.00 0.00 0.00 0.00 0.00 0.00 0.00 0.00 0.00 0.00 0.00 0.00 0.00 0.00 0.00 0.00 0.00 0.00 0.00 0.00 0.00 0.00 0.00 0.00 0.00 0.00 0.00 0.00 0.00 0.00 0.00 0.00 0.00 0.00 0.00 0.00 0.00 0.00
0.00 0.00 0.00 0.00 0.00 0.00 0.00 0.00 0.00 0.00 0.00 0.00 0.00 0.00 0.00 0.00 0.00 0.00 0.00 0.00 0.00 0.00 0.00 0.00 0.00 0.00 0.00 0.00 0.00 0.00 0.00 0.00 0.00 0.00 0.00 0.00 0.00 0.00 0.00 0.00 0.00 0.00 0.00
0.00 0.00 0.00 0.00 0.00 0.00 0.00 0.00 0.00 0.00 0.00 0.00 0.00 0.00 0.00 0.00 0.00 0.00 0.00 0.00 0.00 0.00 0.00 0.00 0.00 0.00 0.00 0.00 0.00 0.00 0.00 0.00 0.00 0.00 0.00 0.00 0.00 0.00 0.00 0.00 0.00 0.00 0.01
0.00 0.00 0.00 0.00 0.00 0.00 0.00 0.00 0.00 0.00 0.00 0.00 0.00 0.00 0.00 0.00 0.00 0.00 0.00 0.00 0.00 0.00 0.00 0.00 0.00 0.00 0.00 0.00 0.00 0.00 0.00 0.00 0.00 0.00 0.00 0.00 0.00 0.00 0.00 0.00 0.00 0.00 0.01
0.00 0.00 0.00 0.00 0.00 0.00 0.00 0.00 0.00 0.00 0.00 0.00 0.00 0.00 0.00 0.00 0.00 0.00 0.00 0.00 0.00 0.00 0.00 0.00 0.00 0.00 0.00 0.00 0.00 0.00 0.00 0.00 0.00 0.00 0.00 0.00 0.00 0.00 0.00 0.00 0.00 0.00 0.00
0.00 0.00 0.00 0.00 0.00 0.00 0.00 0.00 0.00 0.00 0.00 0.00 0.00 0.00 0.00 0.00 0.00 0.00 0.00 0.00 0.00 0.00 0.00 0.00 0.00 0.00 0.00 0.00 0.00 0.00 0.00 0.00 0.00 0.00 0.00 0.00 0.00 0.00 0.00 0.01 0.01 0.00 0.00
0.00 0.00 0.00 0.00 0.00 0.00 0.00 0.00 0.00 0.00 0.00 0.00 0.00 0.00 0.00 0.00 0.00 0.00 0.00 0.00 0.00 0.00 0.00 0.00 0.00 0.00 0.00 0.00 0.00 0.00 0.00 0.00 0.00 0.00 0.00 0.00 0.00 0.00 0.01 0.01 0.01 0.00 0.00
0.00 0.00 0.00 0.00 0.00 0.00 0.00 0.00 0.00 0.00 0.00 0.00 0.00 0.00 0.00 0.00 0.00 0.00 0.00 0.00 0.00 0.00 0.00 0.00 0.00 0.00 0.00 0.00 0.00 0.00 0.00 0.00 0.00 0.00 0.00 0.00 0.00 0.00 0.00 0.01 0.00 0.00 0.01
0.00 0.00 0.00 0.00 0.00 0.00 0.00 0.00 0.00 0.00 0.00 0.00 0.00 0.00 0.00 0.00 0.00 0.00 0.00 0.00 0.00 0.00 0.00 0.00 0.00 0.00 0.00 0.00 0.00 0.00 0.00 0.00 0.00 0.00 0.00 0.00 0.00 0.00 0.00 0.00 0.00 0.01 0.00
0.00 0.00 0.00 0.00 0.00 0.00 0.00 0.00 0.00 0.00 0.00 0.00 0.00 0.00 0.00 0.00 0.00 0.00 0.00 0.00 0.00 0.00 0.00 0.00 0.00 0.00 0.00 0.00 0.00 0.00 0.00 0.00 0.00 0.00 0.00 0.00 0.00 0.00 0.00 0.00 0.00 0.00 0.00
0.00 0.00 0.00 0.00 0.00 0.00 0.00 0.00 0.00 0.00 0.00 0.00 0.00 0.00 0.00 0.00 0.00 0.00 0.00 0.00 0.00 0.00 0.00 0.00 0.00 0.00 0.00 0.00 0.00 0.00 0.00 0.00 0.00 0.00 0.00 0.00 0.00 0.00 0.00 0.00 0.00 0.00 0.00
0.00 0.00 0.00 0.00 0.00 0.00 0.00 0.00 0.00 0.00 0.00 0.00 0.00 0.00 0.00 0.00 0.00 0.00 0.00 0.00 0.00 0.00 0.00 0.00 0.00 0.00 0.00 0.00 0.00 0.00 0.00 0.00 0.00 0.00 0.00 0.00 0.00 0.00 0.00 0.00 0.00 0.00 0.00
0.00 0.00 0.00 0.00 0.00 0.00 0.00 0.00 0.00 0.00 0.00 0.00 0.00 0.00 0.00 0.00 0.00 0.00 0.00 0.00 0.00 0.00 0.00 0.00 0.00 0.00 0.00 0.00 0.00 0.00 0.00 0.00 0.00 0.00 0.00 0.00 0.00 0.00 0.00 0.00 0.00 0.00 0.00
0.00 0.00 0.00 0.00 0.00 0.00 0.00 0.00 0.00 0.00 0.00 0.00 0.00 0.00 0.00 0.00 0.00 0.00 0.00 0.00 0.00 0.00 0.00 0.00 0.00 0.00 0.00 0.00 0.00 0.00 0.00 0.00 0.00 0.00 0.00 0.00 0.00 0.00 0.00 0.00 0.00 0.00 0.00
MSLP
1020.76 1020.81 1020.96 1021.09 1021.19 1021.59 1021.90 1022.31 1022.81 1023.20 1023.18 1023.57 1023.97 1024.25 1024.39 1024.61 1024.69 1024.81 1024.99 1024.98 1025.23 1025.48 1025.47 1025.41 1025.42 1025.37 1025.16 1025.22 1024.99 1024.77 1024.66 1024.37 1024.53 1023.87 1023.48 1023.05 1022.91 1022.95 1022.86 1023.05 1022.98 1022.96 1022.84
1020.80 1020.98 1020.98 1021.19 1021.26 1021.41 1021.89 1022.21 1022.59 1022.87 1023.05 1023.24 1023.46 1023.74 1024.09 1024.49 1024.90 1025.26 1025.51 1025.64 1025.73 1025.77 1025.70 1025.67 1025.55 1025.51 1025.44 1025.51 1025.29 1025.07 1024.78 1024.80 1024.96 1024.47 1023.75 1022.72 1022.72 1022.68 1022.95 1022.86 1022.86 1022.92 1022.97
1020.66 1021.22 1021.48 1021.46 1021.87 1021.97 1022.24 1022.53 1022.92 1023.26 1023.48 1023.48 1023.78 1024.15 1024.55 1025.02 1025.30 1025.62 1025.76 1025.91 1025.68 1025.41 1025.33 1025.42 1025.52 1025.56 1025.54 1025.48 1025.63 1025.73 1025.58 1025.17 1025.22 1025.26 1025.01 1023.92 1023.14 1023.47 1022.87 1022.91 1022.90 1022.97 1022.75
1020.95 1021.30 1021.88 1022.14 1021.99 1022.85 1023.06 1023.21 1023.38 1023.58 1023.87 1023.95 1024.12 1024.43 1024.57 1024.83 1025.54 1025.76 1025.87 1025.69 1025.89 1025.69 1025.57 1025.70 1025.79 1025.80 1025.80 1025.80 1025.88 1025.96 1025.87 1025.72 1025.59 1025.46 1025.49 1025.50 1025.16 1024.43 1023.25 1023.10 1022.93 1023.10 1022.92
1021.15 1021.50 1022.05 1022.27 1022.16 1022.42 1022.87 1023.32 1023.77 1023.77 1024.30 1024.40 1024.62 1024.73 1025.00 1025.45 1025.75 1025.91 1026.00 1026.03 1025.96 1025.92 1025.88 1025.83 1025.70 1025.67 1025.72 1025.88 1025.89 1026.04 1025.88 1025.93 1025.87 1025.80 1025.72 1025.47 1025.22 1024.95 1024.65 1023.62 1023.15 1023.08 1023.03
1021.25 1021.69 1022.09 1022.32 1022.47 1023.28 1023.52 1023.40 1023.80 1024.16 1024.46 1024.60 1024.96 1025.26 1025.54 1025.86 1025.95 1026.09 1026.06 1025.90 1025.67 1025.39 1025.48 1025.50 1025.57 1025.67 1025.82 1025.93 1026.05 1026.20 1025.91 1025.84 1025.79 1025.73 1025.76 1025.53 1025.39 1025.07 1024.98 1024.43 1023.50 1023.11 1022.73
1021.33 1021.88 1022.12 1022.51 1022.99 1023.21 1023.59 1023.63 1023.87 1024.48 1025.00 1025.27 1025.60 1025.86 1026.11 1026.30 1026.34 1026.31 1026.12 1025.83 1025.40 1025.14 1025.04 1025.37 1025.51 1025.56 1025.81 1025.93 1025.90 1025.72 1025.66 1025.60 1025.57 1025.60 1025.53 1025.49 1025.44 1025.35 1025.11 1024.60 1023.79 1023.39 1022.73
1021.52 1021.99 1022.46 1022.83 1023.20 1023.59 1023.67 1024.02 1024.25 1024.74 1025.21 1025.67 1025.88 1026.03 1026.14 1026.39 1026.46 1026.38 1026.24 1025.92 1025.55 1025.21 1025.08 1025.13 1025.38 1025.56 1025.62 1025.65 1025.79 1025.45 1025.39 1025.53 1025.52 1025.50 1025.49 1025.40 1025.17 1025.23 1024.94 1024.62 1024.36 1023.50 1022.94
1021.50 1022.09 1022.74 1023.24 1023.75 1024.05 1024.21 1024.45 1024.79 1025.14 1025.39 1025.50 1026.01 1026.28 1026.44 1026.56 1026.60 1026.47 1026.28 1025.88 1025.60 1025.28 1025.11 1025.13 1025.18 1025.20 1025.16 1025.22 1025.25 1025.25 1025.14 1025.30 1025.24 1025.22 1025.22 1025.07 1024.90 1024.90 1024.80 1024.76 1024.67 1024.34 1022.98
1021.69 1022.40 1023.11 1023.75 1024.13 1024.27 1024.63 1025.00 1025.16 1025.24 1025.54 1025.90 1026.25 1026.38 1026.52 1026.57 1026.49 1026.30 1026.09 1025.83 1025.47 1025.28 1025.15 1025.15 1025.06 1024.96 1024.92 1024.88 1024.96 1024.87 1024.82 1025.10 1024.94 1024.94 1024.85 1024.74 1024.77 1024.79 1024.74 1024.63 1024.56 1024.37 1023.72
1021.68 1022.55 1023.33 1023.92 1024.33 1024.67 1025.04 1025.39 1025.49 1025.30 1025.68 1025.97 1026.33 1026.41 1026.47 1026.42 1026.33 1026.26 1026.05 1025.82 1025.54 1025.18 1024.94 1024.76 1024.83 1024.76 1024.79 1024.92 1025.05 1024.72 1024.65 1024.81 1024.66 1024.60 1024.72 1024.67 1024.68 1024.52 1024.43 1024.33 1024.07 1023.76 1023.47
1021.77 1022.69 1023.40 1023.97 1024.46 1024.87 1025.09 1025.14 1025.20 1025.39 1025.55 1026.04 1026.31 1026.49 1026.40 1026.34 1026.37 1026.28 1026.08 1025.88 1025.60 1025.34 1025.16 1025.04 1024.96 1024.72 1024.75 1024.66 1024.50 1024.28 1024.30 1024.43 1024.30 1024.41 1024.56 1024.49 1024.46 1024.32 1024.10 1023.89 1023.67 1023.44 1023.20
1021.87 1022.74 1023.46 1024.01 1024.45 1024.75 1024.82 1024.99 1025.33 1025.54 1025.92 1026.16 1026.20 1026.20 1026.29 1026.40 1026.37 1026.21 1025.97 1025.75 1025.52 1025.24 1024.96 1024.78 1024.75 1024.66 1024.44 1024.28 1024.18 1024.20 1024.25 1024.38 1024.42 1024.52 1024.57 1024.46 1024.34 1023.99 1023.69 1023.57 1023.23 1023.00 1022.66
1021.86 1022.55 1023.20 1023.67 1024.11 1024.32 1024.51 1024.73 1025.04 1025.73 1025.94 1025.99 1025.92 1026.07 1026.19 1026.21 1026.16 1026.00 1025.75 1025.50 1025.22 1024.89 1024.52 1024.51 1024.64 1024.50 1024.26 1024.21 1024.04 1024.03 1024.22 1024.45 1024.55 1024.68 1024.57 1024.39 1024.19 1023.91 1023.53 1023.30 1023.06 1022.70 1022.46
1021.66 1022.21 1022.68 1023.18 1023.59 1023.96 1024.17 1024.39 1024.96 1025.55 1025.77 1025.70 1025.78 1025.84 1025.93 1025.98 1025.87 1025.70 1025.53 1025.30 1024.94 1024.58 1024.26 1024.26 1024.30 1024.27 1024.21 1024.26 1024.21 1024.06 1024.33 1024.49 1024.55 1024.51 1024.36 1024.25 1024.24 1024.09 1023.71 1023.29 1022.74 1022.47 1022.01
1021.25 1021.76 1022.23 1022.64 1022.93 1023.28 1023.71 1024.15 1024.77 1025.23 1025.43 1025.49 1025.55 1025.65 1025.69 1025.64 1025.46 1025.36 1025.24 1024.94 1024.62 1024.30 1024.09 1024.04 1024.05 1023.95 1024.22 1024.68 1024.48 1024.30 1024.50 1024.60 1024.49 1024.37 1024.18 1024.02 1023.88 1023.46 1023.42 1023.15 1022.74 1022.38 1021.59
1020.71 1021.17 1021.59 1022.10 1022.62 1023.01 1023.50 1024.00 1024.54 1024.95 1025.13 1025.27 1025.30 1025.32 1025.30 1025.16 1025.13 1025.11 1024.88 1024.53 1024.23 1023.99 1023.84 1023.85 1023.98 1024.14 1024.42 1024.74 1024.68 1024.96 1024.70 1024.62 1024.51 1024.34 1024.08 1023.74 1023.48 1023.40 1022.87 1022.34 1021.83 1021.40 1020.97
1020.21 1020.71 1021.26 1021.82 1022.41 1022.96 1023.46 1023.98 1024.47 1024.76 1024.90 1024.99 1024.98 1024.95 1024.91 1024.84 1024.74 1024.69 1024.48 1024.26 1024.04 1023.76 1023.56 1023.75 1023.94 1024.18 1024.55 1024.78 1024.93 1025.04 1024.69 1024.58 1024.46 1024.27 1023.97 1023.62 1023.29 1022.93 1022.74 1021.94 1021.20 1020.59 1020.09
1019.90 1020.52 1021.10 1021.80 1022.52 1023.01 1023.52 1023.96 1024.26 1024.51 1024.77 1024.76 1024.72 1024.69 1024.66 1024.50 1024.45 1024.28 1024.15 1023.99 1023.83 1023.62 1023.60 1023.74 1023.94 1024.23 1024.53 1024.83 1024.95 1024.82 1024.70 1024.57 1024.37 1024.12 1023.79 1023.57 1023.15 1022.82 1022.40 1021.58 1020.88 1020.35 1019.67
1020.03 1020.77 1021.71 1022.20 1022.62 1023.25 1023.61 1023.90 1024.28 1024.50 1024.54 1024.69 1024.71 1024.65 1024.50 1024.39 1024.10 1023.95 1023.78 1023.70 1023.63 1023.52 1023.60 1023.88 1024.14 1024.41 1024.55 1024.86 1024.88 1024.77 1024.71 1024.55 1024.22 1023.87 1023.54 1023.45 1023.29 1022.76 1022.07 1021.50 1020.93 1020.34 1019.53
1019.99 1020.87 1021.58 1022.52 1023.02 1023.43 1023.74 1023.99 1024.25 1024.39 1024.70 1024.76 1024.69 1024.45 1024.21 1023.93 1023.68 1023.53 1023.48 1023.41 1023.32 1023.41 1023.66 1023.98 1024.20 1024.36 1024.52 1024.66 1024.79 1024.76 1024.65 1024.47 1024.10 1023.76 1023.35 1023.09 1023.10 1022.37 1021.99 1021.63 1021.08 1020.49 1019.96
1020.44 1020.90 1021.66 1022.46 1023.15 1023.50 1023.75 1024.01 1024.18 1024.42 1024.59 1024.61 1024.44 1024.15 1023.81 1023.57 1023.40 1023.31 1023.13 1023.15 1023.21 1023.28 1023.61 1023.91 1024.04 1024.12 1024.33 1024.59 1024.59 1024.60 1024.57 1024.43 1024.18 1023.83 1023.51 1023.17 1022.83 1022.40 1021.99 1021.60 1021.18 1020.67 1020.05
1020.64 1021.44 1021.63 1022.29 1023.03 1023.42 1023.66 1023.88 1024.08 1024.37 1024.32 1024.26 1024.02 1023.93 1023.78 1023.42 1023.18 1023.02 1022.78 1022.81 1023.04 1023.17 1023.39 1023.50 1023.51 1023.51 1023.81 1023.98 1024.34 1024.36 1024.34 1024.17 1024.09 1023.84 1023.53 1023.26 1022.89 1022.46 1021.87 1021.61 1021.22 1020.64 1019.99
1021.24 1021.85 1022.22 1022.62 1023.13 1023.43 1023.65 1023.79 1024.02 1024.20 1024.03 1023.89 1023.83 1023.78 1023.49 1023.36 1022.88 1022.74 1022.58 1022.52 1022.68 1022.86 1022.99 1022.95 1023.00 1023.05 1023.28 1023.51 1023.71 1023.86 1023.82 1023.91 1023.76 1023.59 1023.37 1023.32 1022.94 1022.43 1022.07 1021.48 1021.10 1020.77 1020.35
1021.48 1021.88 1022.21 1022.65 1023.08 1023.45 1023.61 1023.80 1023.88 1023.84 1023.81 1023.75 1023.49 1023.28 1023.16 1022.98 1022.69 1022.50 1022.29 1022.30 1022.39 1022.55 1022.61 1022.58 1022.71 1022.77 1022.81 1022.95 1023.20 1023.40 1023.25 1023.36 1023.48 1023.48 1023.21 1022.91 1022.64 1022.15 1021.75 1021.43 1021.19 1020.90 1020.49
1021.81 1022.37 1022.36 1022.66 1023.03 1023.32 1023.54 1023.57 1023.56 1023.59 1023.57 1023.46 1023.20 1022.81 1022.65 1022.52 1022.28 1022.13 1021.97 1022.09 1022.19 1022.35 1022.43 1022.40 1022.48 1022.39 1022.52 1022.76 1022.79 1022.85 1022.78 1022.94 1023.18 1023.07 1022.81 1022.70 1022.56 1022.22 1021.85 1021.46 1021.13 1020.88 1020.69
Thickness
5635 5637 5636 5636 5634 5630 5626 5621 5615 5608 5606 5598 5590 5585 5579 5572 5566 5561 5557 5554 5547 5539 5535 5531 5527 5524 5521 5516 5511 5508 5505 5503 5497 5497 5495 5492 5488 5483 5477 5472 5469 5467 5465
5633 5632 5632 5630 5629 5626 5619 5615 5610 5604 5599 5593 5587 5580 5573 5566 5559 5552 5546 5540 5535 5529 5525 5519 5515 5510 5505 5500 5497 5493 5488 5482 5474 5471 5470 5475 5470 5466 5457 5451 5445 5442 5437
5630 5625 5623 5623 5618 5616 5611 5607 5601 5595 5588 5583 5578 5570 5562 5554 5548 5541 5535 5529 5526 5522 5517 5511 5504 5498 5493 5487 5479 5471 5465 5461 5453 5443 5436 5438 5440 5424 5427 5418 5410 5404 5401
5624 5621 5613 5610 5610 5601 5598 5594 5589 5584 5576 5571 5565 5558 5554 5548 5536 5529 5523 5519 5513 5509 5504 5498 5492 5484 5476 5468 5459 5449 5441 5433 5425 5415 5405 5394 5388 5385 5393 5391 5384 5377 5370
5618 5613 5606 5603 5602 5598 5591 5585 5579 5575 5564 5558 5552 5547 5541 5533 5526 5519 5513 5507 5502 5496 5490 5484 5477 5469 5458 5447 5437 5427 5420 5409 5399 5390 5380 5371 5361 5350 5339 5343 5345 5340 5334
5611 5605 5600 5597 5594 5585 5580 5578 5571 5562 5555 5551 5544 5537 5530 5522 5516 5509 5502 5496 5491 5486 5478 5470 5460 5449 5438 5428 5418 5406 5398 5387 5375 5362 5348 5337 5326 5317 5306 5301 5308 5309 5312
5604 5598 5596 5591 5584 5580 5573 5570 5563 5553 5544 5538 5530 5523 5516 5508 5501 5494 5489 5484 5479 5473 5465 5454 5444 5434 5422 5411 5401 5390 5376 5363 5348 5333 5319 5307 5299 5292 5285 5281 5284 5282 5290
5598 5594 5588 5583 5577 5571 5567 5559 5553 5544 5535 5526 5519 5511 5504 5496 5488 5481 5474 5469 5464 5458 5451 5442 5430 5418 5405 5393 5378 5366 5350 5334 5320 5307 5296 5286 5280 5273 5269 5266 5262 5267 5269
5595 5589 5581 5575 5568 5562 5556 5549 5542 5533 5525 5518 5508 5499 5491 5482 5474 5467 5461 5456 5450 5445 5437 5426 5414 5401 5388 5373 5358 5342 5327 5311 5299 5289 5279 5274 5269 5264 5259 5253 5248 5244 5251
5589 5581 5573 5565 5559 5554 5545 5537 5530 5524 5514 5505 5495 5487 5477 5469 5463 5457 5451 5445 5438 5429 5419 5408 5396 5384 5370 5354 5337 5322 5308 5294 5284 5277 5271 5266 5261 5255 5248 5243 5237 5232 5229
5584 5574 5565 5556 5549 5541 5533 5523 5516 5512 5502 5493 5483 5474 5467 5460 5452 5445 5438 5430 5422 5413 5403 5392 5379 5366 5351 5334 5317 5305 5291 5279 5274 5269 5263 5257 5251 5247 5241 5235 5230 5224 5219
5577 5567 5557 5547 5538 5529 5521 5512 5509 5501 5493 5481 5471 5463 5456 5448 5440 5432 5423 5413 5405 5395 5384 5372 5359 5347 5329 5314 5301 5289 5279 5272 5268 5262 5256 5251 5244 5239 5234 5228 5222 5216 5210
5568 5557 5547 5538 5527 5518 5512 5506 5496 5488 5477 5468 5461 5453 5444 5435 5427 5418 5409 5399 5390 5379 5368 5355 5340 5324 5310 5297 5286 5277 5270 5264 5258 5252 5246 5242 5236 5232 5228 5220 5215 5209 5205
5559 5550 5539 5530 5519 5512 5505 5496 5486 5474 5466 5458 5450 5441 5432 5423 5414 5405 5396 5386 5376 5366 5354 5337 5319 5304 5291 5281 5273 5267 5261 5254 5248 5241 5237 5232 5227 5222 5217 5211 5205 5202 5196
5552 5542 5533 5524 5514 5504 5495 5488 5475 5463 5455 5447 5438 5430 5420 5411 5401 5392 5382 5372 5361 5348 5334 5318 5302 5288 5277 5268 5262 5258 5252 5245 5239 5234 5229 5224 5216 5209 5204 5200 5199 5194 5190
5547 5537 5527 5518 5507 5501 5491 5478 5464 5454 5444 5436 5427 5418 5408 5399 5390 5380 5368 5356 5345 5332 5317 5302 5288 5277 5266 5256 5252 5248 5242 5235 5231 5227 5223 5217 5210 5206 5198 5193 5189 5185 5184
5541 5532 5522 5513 5502 5492 5479 5467 5455 5443 5434 5425 5416 5407 5398 5390 5378 5364 5353 5343 5330 5315 5301 5287 5275 5264 5254 5246 5242 5236 5232 5227 5223 5219 5215 5210 5204 5197 5194 5192 5189 5184 5177
5535 5524 5513 5502 5491 5478 5466 5454 5443 5433 5424 5415 5406 5397 5387 5376 5364 5351 5340 5327 5312 5299 5288 5275 5264 5254 5245 5239 5233 5228 5224 5220 5215 5211 5207 5203 5198 5192 5187 5188 5187 5183 5176
5524 5513 5502 5489 5476 5466 5454 5443 5434 5424 5414 5406 5395 5384 5373 5363 5351 5339 5325 5310 5297 5286 5276 5264 5254 5246 5238 5231 5226 5221 5217 5212 5208 5204 5200 5195 5191 5185 5183 5184 5184 5179 5173
5509 5497 5483 5473 5464 5450 5441 5432 5422 5412 5403 5391 5380 5369 5359 5348 5338 5325 5311 5296 5285 5275 5264 5253 5244 5236 5230 5223 5218 5214 5210 5206 5203 5199 5194 5188 5182 5179 5179 5179 5177 5173 5171
5495 5482 5472 5459 5446 5436 5427 5419 5408 5399 5386 5376 5365 5356 5346 5337 5325 5311 5297 5286 5276 5264 5253 5243 5235 5229 5224 5218 5212 5207 5203 5200 5197 5193 5189 5184 5176 5175 5174 5172 5171 5168 5164
5481 5471 5459 5445 5433 5423 5414 5405 5396 5385 5373 5363 5353 5345 5337 5324 5311 5297 5287 5275 5265 5254 5243 5234 5228 5224 5218 5212 5207 5202 5197 5193 5189 5186 5181 5177 5172 5170 5169 5168 5166 5164 5161
5467 5455 5446 5435 5421 5411 5402 5393 5383 5371 5361 5351 5343 5332 5321 5310 5299 5288 5277 5267 5255 5246 5238 5232 5227 5223 5215 5210 5203 5198 5193 5188 5184 5179 5175 5171 5167 5165 5165 5164 5163 5162 5161
5451 5438 5427 5418 5407 5397 5388 5380 5369 5358 5350 5340 5329 5318 5309 5297 5287 5277 5267 5257 5247 5240 5234 5230 5225 5220 5213 5208 5202 5196 5191 5185 5180 5175 5171 5165 5162 5161 5160 5162 5162 5160 5158
5431 5425 5416 5404 5393 5381 5373 5364 5355 5346 5336 5326 5318 5307 5296 5286 5276 5266 5258 5249 5241 5235 5230 5226 5220 5215 5212 5207 5200 5193 5189 5183 5177 5170 5167 5164 5160 5159 5159 5159 5158 5157 5156
5417 5407 5400 5389 5378 5367 5358 5350 5341 5332 5323 5313 5305 5296 5286 5276 5267 5258 5251 5241 5234 5228 5223 5219 5214 5212 5208 5202 5197 5191 5187 5180 5174 5170 5166 5161 5156 5155 5155 5155 5155 5155 5154